Location: B?ezina
(49.8085°N, 13.6013°E)
Time: 00:07:01
(UTC+00:00)

Cosmos 1842 - Pass Details

Date: 19 May 2025
Orbit: 440 x 450 km, 82.5° (Epoch: 15 June)

Event Time Altitude Azimuth Distance (km) Brightness Sun altitude
Exits shadow 22:04:17 34° 94° (E) 767 3.8 -19.0°
Maximum altitude 22:04:20 34° 93° (E) 767 3.9 -19.0°
Drops below altitude 10° 22:07:31 10° 27° (NNE) 1,600 6.4 -19.2°
Sets 22:09:43 0° 18° (NNE) 2,480 7.7 -19.3°
